Location: Albany
(42.6526°N, 73.7562°W)
Time: 15:45:36
(UTC+00:00)

SMAP - Pass Details

Date: 19 November 2019
Orbit: 682 x 683 km, 98.1° (Epoch: 06 December)

Event Time Altitude Azimuth Distance (km) Brightness Sun altitude
Rises 22:18:12 0° 165° (SSE) 3,030 6.5 -9.2°
Reaches altitude 10° 22:20:26 10° 166° (SSE) 2,119 5.7 -9.6°
Maximum altitude 22:25:04 89° 252° (WSW) 689 3.1 -10.4°
Drops below altitude 10° 22:29:45 10° 347° (NNW) 2,135 5.6 -11.2°
Sets 22:32:00 0° 347° (NNW) 3,054 6.4 -11.6°
